Theta_e
345 353 360 361 361 360 360 359 359 359 359 360 358 358 358 359 359 360 359 358 357 356 357 357 357 357 357 359 358 360 361 361 359 359 360 361 361 359 357 358 357 355 359
348 355 360 363 361 361 360 360 359 360 359 358 359 358 358 357 357 357 357 358 358 359 359 359 358 357 357 356 356 359 360 359 358 360 359 359 360 360 360 360 358 355 358
351 355 357 363 362 360 360 360 360 359 359 360 359 358 358 357 357 357 357 358 358 359 359 358 358 358 357 356 356 357 359 359 360 360 358 350 353 360 360 360 360 358 358
354 354 356 363 363 360 360 360 360 360 359 359 359 359 358 359 358 358 358 357 358 359 359 359 358 358 358 357 357 358 359 360 359 352 343 344 353 358 360 358 359 359 358
354 355 356 363 362 361 360 360 360 360 361 359 359 359 358 359 359 359 359 358 359 359 358 359 359 359 358 357 357 358 357 357 358 344 337 339 343 356 358 357 358 356 357
351 354 360 363 363 363 363 361 361 361 361 359 359 359 359 359 359 359 359 359 359 358 358 359 359 359 359 359 359 359 358 357 352 341 336 339 342 356 359 358 357 357 356
350 353 358 365 363 362 362 362 362 362 359 360 361 361 361 360 359 361 359 359 359 358 357 359 362 360 360 358 358 358 359 356 344 343 340 341 342 354 359 359 358 358 357
352 355 357 361 361 361 360 361 361 361 361 361 361 361 361 361 360 359 359 359 359 359 359 359 360 361 359 358 359 358 356 357 354 344 343 336 346 356 357 359 359 358 358
354 354 353 354 357 363 363 361 361 360 362 361 362 361 363 361 360 360 359 359 359 360 359 359 358 359 359 358 357 355 356 356 345 343 343 336 347 358 361 359 360 358 357
352 353 352 352 352 352 351 360 363 362 363 361 361 361 359 360 361 361 363 359 358 359 359 360 360 359 360 359 359 359 359 359 346 342 343 344 347 359 362 361 360 359 356
349 348 350 349 350 352 349 349 360 363 362 363 362 362 361 352 353 352 357 359 359 359 359 359 359 359 359 359 359 359 359 353 346 343 342 349 352 356 360 360 359 357 355
344 347 348 348 350 350 352 348 347 350 350 349 350 349 350 347 348 354 358 360 361 360 361 361 360 359 358 352 352 357 351 351 350 345 343 349 352 357 358 360 358 358 357
343 346 347 346 350 350 349 349 349 349 351 348 350 350 350 349 347 352 350 351 350 356 351 354 352 352 351 349 349 349 351 350 346 345 348 354 356 359 358 360 357 358 358
340 341 344 345 348 350 349 352 351 351 350 348 348 349 348 346 344 346 346 347 347 346 345 345 346 350 350 350 349 348 350 350 348 343 343 354 358 358 359 357 357 357 358
337 339 341 343 344 350 348 350 350 350 351 349 347 348 348 347 343 342 342 342 345 346 344 342 343 343 344 348 349 347 348 347 342 340 338 347 357 360 360 358 356 357 358
338 339 341 342 342 347 349 347 350 350 349 344 343 346 348 347 345 340 340 341 342 344 345 344 343 343 341 345 346 347 346 344 343 342 344 346 351 356 357 357 355 356 357
338 339 340 341 342 344 348 347 346 348 349 345 343 343 347 347 345 344 340 340 343 343 345 346 347 347 343 344 343 346 347 346 344 343 343 343 346 353 355 356 356 355 354
337 337 340 344 342 344 347 347 347 347 348 347 344 345 346 347 346 343 343 342 343 344 344 343 344 344 343 342 341 344 344 345 348 347 346 346 349 349 352 355 355 354 354
337 339 339 342 342 344 346 348 346 346 345 344 345 345 347 348 347 344 344 346 345 343 345 347 346 344 342 341 343 343 344 345 345 349 347 347 347 348 348 351 353 354 356
336 338 341 342 343 345 347 347 347 347 347 347 345 345 346 346 345 344 344 345 346 345 345 347 346 343 342 341 344 345 345 346 344 343 345 346 346 347 347 347 348 350 355
334 337 339 340 341 343 343 343 343 343 345 347 349 351 348 348 346 345 344 345 345 344 342 344 345 343 344 345 342 340 340 342 342 341 342 343 344 346 347 347 347 347 347
335 338 339 341 341 343 344 344 345 345 346 349 351 353 349 346 347 347 345 346 346 345 344 346 346 343 342 345 338 335 331 334 338 340 341 341 341 345 347 348 348 347 347
334 337 338 340 342 344 345 345 348 349 350 348 348 347 351 350 349 347 347 345 344 345 341 344 345 343 340 342 341 336 328 324 329 334 337 339 339 340 342 343 345 346 346
334 338 338 339 342 345 346 345 345 345 344 347 346 348 348 350 348 346 345 344 342 341 341 341 346 344 342 337 338 342 337 334 330 329 332 335 337 338 338 339 344 346 347
337 337 339 339 344 344 347 347 347 344 346 347 344 345 343 343 345 346 344 342 340 341 342 343 341 340 341 339 335 335 334 334 333 330 329 329 334 335 338 338 340 339 345
338 338 339 340 342 346 348 348 347 346 346 341 340 340 342 339 342 344 345 343 344 343 343 343 342 341 339 339 337 336 333 330 330 331 332 326 327 332 334 336 337 336 341
Wind_Speed
4 5 12 16 16 16 17 16 16 16 16 17 17 16 17 15 15 15 15 15 13 11 11 10 9 9 9 10 11 12 12 11 12 12 11 12 12 12 12 12 11 6 12
8 6 13 15 16 16 16 15 14 14 15 14 15 15 15 15 14 14 14 14 13 11 11 11 10 9 9 9 10 11 11 11 11 11 11 11 10 12 11 11 10 8 10
10 8 10 15 15 15 15 14 13 13 13 13 13 13 13 12 12 12 12 12 12 11 11 11 10 9 9 9 9 9 9 10 10 9 8 4 4 9 10 10 11 10 10
10 7 9 14 14 15 14 13 13 13 12 12 11 12 11 11 11 10 10 10 10 10 9 10 9 9 9 10 9 8 8 8 10 8 4 3 3 9 9 11 9 10 9
9 7 10 16 15 15 14 13 12 11 11 10 10 11 11 11 10 10 9 9 9 9 8 9 10 9 8 8 8 8 8 6 8 5 3 2 2 7 9 9 10 10 9
8 7 12 16 16 15 14 14 13 11 11 10 10 10 10 9 9 9 9 9 9 8 8 9 9 9 10 8 7 7 8 8 8 4 2 3 2 7 9 9 8 9 8
8 6 9 14 14 13 12 13 13 12 11 10 9 10 9 10 8 8 8 7 9 8 7 8 9 8 9 8 8 8 9 7 5 3 4 2 4 4 10 10 10 9 9
12 8 8 14 14 13 12 12 12 12 12 11 9 9 10 10 9 8 8 8 9 8 7 8 8 9 8 8 7 6 7 8 5 4 4 4 7 7 11 10 10 11 10
10 9 6 6 11 13 12 13 12 12 10 9 11 9 9 9 9 7 7 7 7 8 8 8 8 8 8 8 8 7 7 7 4 4 5 3 7 9 11 10 11 11 10
5 6 6 6 6 6 6 13 12 11 11 10 9 10 10 9 8 8 7 6 7 7 8 7 8 8 9 8 8 8 10 9 3 4 3 3 9 11 12 13 12 11 12
6 5 5 6 5 5 5 7 11 11 11 9 9 10 6 2 4 6 6 8 9 8 9 8 9 9 9 9 9 9 10 2 4 3 3 8 10 11 13 14 13 12 12
9 8 6 5 6 6 5 4 5 5 3 3 4 4 3 3 3 4 7 10 10 10 11 12 12 11 10 3 3 8 2 4 3 4 3 13 14 14 17 16 15 14 14
13 9 9 6 5 5 5 3 3 2 3 3 5 5 4 3 3 3 3 3 3 9 4 6 5 4 5 4 3 4 4 4 3 3 5 14 17 19 19 15 15 15 16
12 13 11 9 8 7 3 4 3 3 3 3 4 6 4 3 4 4 3 4 4 3 4 4 3 4 5 5 5 6 6 4 4 3 5 12 16 19 19 15 15 16 16
12 13 12 10 9 9 5 4 4 5 4 5 4 5 4 4 4 4 4 3 4 3 4 4 4 4 5 6 6 5 6 5 5 4 4 15 16 18 20 17 17 18 17
13 13 12 12 11 8 7 7 6 5 5 4 4 5 6 4 4 4 4 4 4 3 5 4 5 5 4 4 6 6 7 4 5 5 4 4 16 15 19 20 22 21 20
12 13 14 13 10 9 9 7 5 6 5 6 6 6 7 7 7 5 4 4 4 3 5 3 4 4 3 3 5 4 3 5 5 7 7 6 8 12 21 25 24 21 21
12 13 12 11 11 10 10 6 6 6 6 7 6 5 8 7 6 6 4 4 2 4 4 4 4 4 4 3 3 4 4 4 7 7 8 7 6 6 16 20 21 21 22
15 13 12 12 11 12 9 6 6 7 6 6 4 4 6 6 6 4 2 4 5 4 4 3 2 3 3 3 3 4 5 4 5 4 6 7 7 7 6 13 19 26 25
13 13 13 11 11 10 6 4 2 3 4 4 4 4 5 4 4 5 4 5 2 4 4 3 4 3 4 4 3 4 4 5 5 5 6 5 6 8 8 9 8 12 25
11 11 13 11 9 7 3 4 3 4 3 3 4 8 6 5 6 7 5 4 2 3 5 3 3 4 3 1 2 3 3 4 4 3 3 4 5 6 7 7 6 6 8
16 15 12 14 10 10 7 5 3 3 3 2 1 4 4 5 6 5 6 7 7 5 4 4 5 1 2 3 2 1 4 4 2 1 2 3 4 4 6 7 8 8 8
15 15 15 16 12 11 9 4 2 2 1 0 2 2 1 4 5 4 6 4 2 4 3 3 2 4 2 1 4 3 2 2 3 2 2 1 2 2 3 4 6 7 8
16 15 16 13 12 10 8 7 7 5 4 4 3 1 2 3 4 2 2 2 4 2 2 3 2 2 3 3 1 3 2 3 1 3 2 3 3 4 4 3 4 5 6
13 14 14 10 10 9 11 10 8 4 3 1 1 4 3 2 3 4 4 3 2 2 2 2 1 1 2 1 2 1 1 1 1 2 3 4 3 2 3 3 3 3 4
8 11 11 11 12 9 11 9 10 8 6 4 4 4 3 2 1 3 3 2 1 1 1 1 2 4 3 2 1 1 1 1 1 2 1 2 3 4 2 3 3 3 3
Wind_Direction
172 158 150 131 132 125 121 122 122 124 122 122 126 126 125 127 128 129 130 127 130 131 127 122 118 113 111 109 114 112 113 108 104 106 109 111 116 110 104 101 102 104 114
134 147 152 139 136 130 128 128 129 126 124 124 126 129 131 135 135 135 137 136 134 137 131 130 130 128 122 127 122 120 114 109 117 116 114 123 122 125 121 119 121 121 114
136 146 152 143 142 138 137 137 136 131 130 129 129 132 138 139 142 148 148 146 140 141 142 139 136 137 136 133 131 121 125 125 117 105 86 68 130 136 132 126 132 132 126
134 143 152 148 148 146 146 147 141 140 138 134 136 136 137 143 149 153 153 151 148 151 154 148 144 142 152 147 141 140 144 134 134 112 98 69 110 153 149 138 135 127 128
131 139 159 150 154 154 158 155 155 143 143 139 142 144 144 138 143 157 157 162 161 160 162 157 154 149 148 160 155 158 163 165 166 122 115 106 74 146 148 149 153 143 136
133 139 159 158 162 160 165 167 158 158 151 148 154 149 151 147 148 145 159 161 167 165 161 152 157 158 154 158 162 159 172 168 142 109 175 203 139 162 157 155 162 147 152
139 151 155 158 156 156 160 153 159 156 156 166 160 145 158 169 150 144 154 171 173 181 177 172 165 165 163 167 175 181 187 195 132 146 152 206 203 196 170 166 162 164 165
149 150 157 159 161 161 162 162 161 162 162 168 162 150 158 158 161 160 165 177 184 193 188 185 186 175 176 180 185 191 204 204 152 164 170 193 216 201 172 180 169 174 178
154 149 154 164 170 167 167 166 169 170 171 158 160 155 151 155 155 164 154 187 183 192 195 188 191 194 190 198 204 205 216 229 152 178 186 212 207 209 201 180 182 179 189
149 160 161 164 158 169 173 176 176 173 170 164 159 164 161 165 167 175 172 192 197 194 200 201 201 197 206 216 223 221 216 218 184 191 204 209 216 208 199 188 186 196 193
160 169 185 171 170 155 172 185 180 175 170 170 177 178 168 142 187 195 187 211 205 208 216 212 214 216 223 233 232 229 227 199 190 213 198 227 215 221 220 203 196 202 208
181 193 190 184 183 172 178 190 174 190 173 169 170 185 166 193 209 199 209 215 225 222 228 229 226 224 229 221 250 241 212 220 199 215 210 230 234 223 222 211 201 199 205
180 187 189 196 191 188 193 167 179 168 171 191 201 198 190 190 227 245 229 232 217 231 233 246 256 251 228 218 233 240 236 208 209 212 232 235 229 221 219 207 211 208 206
182 196 191 195 188 199 175 182 184 179 200 205 210 202 186 201 224 231 225 222 228 219 225 233 241 241 251 239 218 227 239 223 201 216 243 254 235 233 217 217 226 214 215
187 195 198 192 193 197 186 171 193 200 203 206 212 220 195 197 213 221 228 225 224 220 231 237 241 249 239 249 248 234 230 218 222 209 223 249 245 229 210 219 221 234 221
190 197 194 195 199 194 189 186 198 200 210 211 219 223 218 209 206 212 225 231 236 208 250 218 224 229 240 229 236 230 233 216 218 221 225 230 252 252 233 229 224 232 225
194 192 196 193 190 197 199 196 198 206 201 214 224 224 217 207 207 205 215 228 240 227 241 228 238 230 230 251 252 235 243 248 213 210 224 225 246 237 241 251 224 222 232
189 191 190 195 194 198 204 199 207 207 210 220 220 219 215 213 203 200 220 247 249 237 220 214 226 244 242 226 250 253 244 235 231 212 211 216 230 202 229 245 216 226 230
192 183 187 192 188 201 201 193 204 209 214 222 223 221 227 218 206 203 189 234 220 244 248 240 261 206 242 247 238 225 241 233 239 213 214 215 222 223 223 236 206 226 234
185 186 184 190 188 189 190 183 203 223 227 228 224 234 230 231 198 194 215 262 242 241 238 230 234 209 227 248 261 268 254 235 220 219 214 216 221 222 217 219 227 233 236
179 178 187 184 184 167 153 180 209 217 220 224 213 223 213 204 182 199 224 261 207 266 261 261 241 227 253 155 307 319 275 266 261 239 215 214 218 229 235 237 223 215 233
178 187 187 200 183 189 190 189 177 166 223 228 264 277 211 194 192 205 209 230 204 197 240 228 202 272 18 171 141 293 327 334 359 6 242 229 238 231 232 226 234 232 218
183 187 193 199 192 193 189 127 95 99 45 289 271 319 30 155 175 200 224 222 163 167 220 246 320 163 216 305 189 170 300 259 324 328 334 300 289 251 240 239 229 221 227
194 194 195 192 196 197 173 179 181 181 174 211 212 174 105 157 142 158 168 155 142 180 250 261 255 222 173 235 62 216 201 172 225 317 322 330 331 295 289 276 252 229 218
189 195 198 185 195 190 187 193 193 183 158 127 74 139 133 95 91 99 114 113 162 208 266 299 355 120 167 177 196 247 157 222 229 225 286 321 330 266 258 272 294 302 271
196 195 200 185 199 187 185 190 188 175 147 160 159 156 146 113 90 104 91 65 355 53 34 95 54 57 66 77 67 64 169 168 190 231 259 307 268 297 297 301 312 299 309